Location: Newark
(48.6461°N, 4.3644°W)
Time: 07:06:06
(UTC+00:00)

S-56A Canister/Altair - Pass Details

Date: 21 January 2020
Orbit: 633 x 2499 km, 38.9° (Epoch: 20 February)

Event Time Altitude Azimuth Distance (km) Brightness Sun altitude
Rises 22:50:05 0° 239° (WSW) 3,264 - -55.1°
Reaches altitude 10° 22:53:07 10° 225° (SW) 2,169 - -55.4°
Maximum altitude 22:56:52 23° 173° (S) 1,369 - -55.8°
Drops below altitude 10° 23:00:23 10° 120° (ESE) 2,009 - -56.2°
Sets 23:03:04 0° 105° (ESE) 2,961 - -56.5°
